sat.trackr.live / text

‹ back to catalog

STARLINK-34041

NORAD 63844 · 2025-093J

PAYLOAD ACTIVE UNKNOWN

§ Identity

Operator
Country
US
Launch date
2025-05-07
Launch site
AFETR
Launch vehicle
Mass (kg)
RCS (m²)

Purposes: comms

External: N2YO · Heavens-Above · Gunter

§ Orbital elements

Epoch: 2026-09-19T18:55:40.385568Z

Period
94.27 min
Inclination
43.0041°
Eccentricity
0.0002794
Mean motion
15.27597577 rev/d
Perigee alt
481.1 km
Apogee alt
484.9 km
Semi-major
6,861.1 km
B*
4.9188e-4
RAAN
62.0309°
Arg perigee
280.0770°
Mean anomaly
79.9767°
Rev number
7,765

§ Raw data

STARLINK-340411 63844U 25093J   26262.78866187  .00013305  00000+0  49188-3 0  99972 63844  43.0041  62.0309 0002794 280.0770  79.9767 15.27597577 77650

JSON: /api/v1/satellites/63844 · /tle

For live sub-satellite position, see the globe view (requires WebGL).

§ Visibility from observer

Set your observer location to see the next 7 days of passes ≥ 10°. The values pass through the URL so the page stays shareable.

No JS? Fill the form by hand. The geolocation button needs JavaScript.